Time,TemperatureF,DewpointF,PressureIn,WindDirection,WindDirectionDegrees,WindSpeedMPH,WindSpeedGustMPH,Humidity,HourlyPrecipIn,Conditions,Clouds,dailyrainin,SoftwareType,DateUTC
2013-05-30 00:01:00,63.7,62.6,30.04,West,263,2.0,4.0,96,0.02,,,0.85,meteohub,2013-05-30 04:01:00,
2013-05-30 00:06:00,63.7,62.6,30.04,West,270,0.0,4.0,96,0.01,,,0.00,meteohub,2013-05-30 04:06:00,
2013-05-30 00:11:00,63.5,62.4,30.04,West,270,1.0,3.0,96,0.00,,,0.00,meteohub,2013-05-30 04:11:00,
2013-05-30 00:16:00,63.5,62.4,30.04,West,270,1.0,3.0,96,0.00,,,0.00,meteohub,2013-05-30 04:16:00,
2013-05-30 00:21:00,63.5,62.4,30.04,West,270,1.0,3.0,96,0.00,,,0.00,meteohub,2013-05-30 04:21:00,
2013-05-30 00:26:00,63.3,62.2,30.04,West,270,1.0,2.0,96,0.00,,,0.00,meteohub,2013-05-30 04:26:00,
2013-05-30 00:31:00,63.3,62.2,30.04,West,270,1.0,2.0,96,0.00,,,0.00,meteohub,2013-05-30 04:31:00,
2013-05-30 00:36:00,63.3,62.2,30.04,West,270,0.0,2.0,96,0.00,,,0.00,meteohub,2013-05-30 04:36:00,
2013-05-30 00:41:00,63.1,62.1,30.03,West,270,0.0,2.0,96,0.00,,,0.00,meteohub,2013-05-30 04:41:00,
2013-05-30 00:46:00,63.1,62.1,30.03,West,270,1.0,2.0,96,0.00,,,0.00,meteohub,2013-05-30 04:46:00,
2013-05-30 00:51:00,63.1,62.1,30.03,West,270,1.0,2.0,96,0.00,,,0.00,meteohub,2013-05-30 04:51:00,
2013-05-30 00:56:00,63.1,62.1,30.03,West,270,0.0,2.0,96,0.00,,,0.00,meteohub,2013-05-30 04:56:00,
2013-05-30 01:01:00,63.0,61.9,30.03,West,270,1.0,2.0,96,0.00,,,0.00,meteohub,2013-05-30 05:01:00,
2013-05-30 01:06:00,63.0,61.9,30.03,West,270,1.0,2.0,96,0.00,,,0.00,meteohub,2013-05-30 05:06:00,
2013-05-30 01:11:00,63.0,61.9,30.03,West,270,0.0,2.0,96,0.00,,,0.00,meteohub,2013-05-30 05:11:00,
2013-05-30 01:16:00,62.8,61.7,30.02,West,270,0.0,2.0,96,0.00,,,0.00,meteohub,2013-05-30 05:16:00,
2013-05-30 01:21:00,62.8,61.7,30.03,West,270,0.0,2.0,96,0.00,,,0.00,meteohub,2013-05-30 05:21:00,
2013-05-30 01:26:00,62.6,61.5,30.03,West,270,0.0,2.0,96,0.00,,,0.00,meteohub,2013-05-30 05:26:00,
2013-05-30 01:31:00,62.6,61.7,30.02,West,270,0.0,2.0,97,0.00,,,0.00,meteohub,2013-05-30 05:31:00,
2013-05-30 01:36:00,62.4,61.5,30.03,West,270,0.0,2.0,97,0.00,,,0.00,meteohub,2013-05-30 05:36:00,
2013-05-30 01:41:00,62.4,61.3,30.03,West,270,0.0,1.0,96,0.00,,,0.00,meteohub,2013-05-30 05:41:00,
2013-05-30 01:46:00,62.4,61.3,30.02,West,270,0.0,1.0,96,0.00,,,0.00,meteohub,2013-05-30 05:46:00,
2013-05-30 01:51:00,62.4,61.3,30.03,West,270,0.0,1.0,96,0.00,,,0.00,meteohub,2013-05-30 05:51:00,
2013-05-30 01:56:00,62.2,61.2,30.03,West,270,0.0,0.0,96,0.00,,,0.00,meteohub,2013-05-30 05:56:00,
2013-05-30 02:01:00,62.2,61.2,30.03,West,270,0.0,0.0,96,0.00,,,0.00,meteohub,2013-05-30 06:01:00,
2013-05-30 02:06:00,62.2,61.3,30.03,West,270,0.0,0.0,97,0.00,,,0.00,meteohub,2013-05-30 06:06:00,
2013-05-30 02:11:00,62.2,61.3,30.03,West,270,0.0,0.0,97,0.00,,,0.00,meteohub,2013-05-30 06:11:00,
2013-05-30 02:16:00,62.2,61.3,30.03,West,270,0.0,0.0,97,0.00,,,0.00,meteohub,2013-05-30 06:16:00,
2013-05-30 02:22:00,62.1,61.2,30.03,West,270,0.0,0.0,97,0.00,,,0.00,meteohub,2013-05-30 06:22:00,
2013-05-30 02:27:00,62.1,61.2,30.03,West,270,0.0,0.0,97,0.00,,,0.00,meteohub,2013-05-30 06:27:00,
2013-05-30 02:32:00,62.1,61.2,30.03,West,270,0.0,0.0,97,0.00,,,0.00,meteohub,2013-05-30 06:32:00,
2013-05-30 02:37:00,62.1,61.2,30.03,West,270,0.0,0.0,97,0.00,,,0.00,meteohub,2013-05-30 06:37:00,
2013-05-30 02:42:00,62.1,61.2,30.03,West,270,0.0,0.0,97,0.00,,,0.00,meteohub,2013-05-30 06:42:00,
2013-05-30 02:47:00,62.1,61.2,30.02,West,270,0.0,0.0,97,0.00,,,0.00,meteohub,2013-05-30 06:47:00,
2013-05-30 02:52:00,61.5,60.6,30.03,West,270,0.0,0.0,97,0.00,,,0.00,meteohub,2013-05-30 06:52:00,
2013-05-30 02:57:00,61.5,60.6,30.03,West,270,0.0,0.0,97,0.00,,,0.00,meteohub,2013-05-30 06:57:00,
2013-05-30 03:02:00,61.5,60.6,30.03,West,270,0.0,0.0,97,0.00,,,0.00,meteohub,2013-05-30 07:02:00,
2013-05-30 03:07:00,61.9,61.0,30.03,West,270,0.0,0.0,97,0.00,,,0.00,meteohub,2013-05-30 07:07:00,
2013-05-30 03:12:00,61.7,60.8,30.03,West,270,0.0,0.0,97,0.00,,,0.00,meteohub,2013-05-30 07:12:00,
2013-05-30 03:17:00,61.5,60.6,30.03,West,270,0.0,0.0,97,0.00,,,0.00,meteohub,2013-05-30 07:17:00,
2013-05-30 03:22:00,61.2,60.1,30.03,West,270,0.0,0.0,96,0.00,,,0.00,meteohub,2013-05-30 07:22:00,
2013-05-30 03:27:00,61.0,60.1,30.03,West,270,0.0,0.0,97,0.00,,,0.00,meteohub,2013-05-30 07:27:00,
2013-05-30 03:32:00,61.0,60.1,30.03,West,270,0.0,0.0,97,0.00,,,0.00,meteohub,2013-05-30 07:32:00,
2013-05-30 03:37:00,61.3,60.4,30.02,West,270,0.0,0.0,97,0.00,,,0.00,meteohub,2013-05-30 07:37:00,
2013-05-30 03:42:00,61.3,60.4,30.03,West,270,0.0,0.0,97,0.00,,,0.00,meteohub,2013-05-30 07:42:00,
2013-05-30 03:47:00,61.0,60.1,30.03,West,270,0.0,0.0,97,0.00,,,0.00,meteohub,2013-05-30 07:47:00,
2013-05-30 03:52:00,61.3,60.4,30.03,West,270,0.0,0.0,97,0.00,,,0.00,meteohub,2013-05-30 07:52:00,
2013-05-30 03:57:00,61.2,60.3,30.03,West,270,0.0,0.0,97,0.00,,,0.00,meteohub,2013-05-30 07:57:00,
2013-05-30 04:02:00,61.2,60.3,30.03,West,270,0.0,0.0,97,0.00,,,0.00,meteohub,2013-05-30 08:02:00,
2013-05-30 04:07:00,61.2,60.3,30.03,West,270,0.0,0.0,97,0.00,,,0.00,meteohub,2013-05-30 08:07:00,
2013-05-30 04:12:00,61.2,60.3,30.03,West,270,0.0,0.0,97,0.00,,,0.00,meteohub,2013-05-30 08:12:00,
2013-05-30 04:17:00,61.2,60.3,30.03,West,270,0.0,0.0,97,0.00,,,0.00,meteohub,2013-05-30 08:17:00,
2013-05-30 04:22:00,61.2,60.3,30.03,West,270,0.0,0.0,97,0.00,,,0.00,meteohub,2013-05-30 08:22:00,
2013-05-30 04:27:00,61.0,60.1,30.03,West,270,0.0,0.0,97,0.00,,,0.00,meteohub,2013-05-30 08:27:00,
2013-05-30 04:32:00,61.0,60.1,30.03,West,270,0.0,0.0,97,0.00,,,0.00,meteohub,2013-05-30 08:32:00,
2013-05-30 04:37:00,61.3,60.4,30.03,West,270,0.0,0.0,97,0.00,,,0.00,meteohub,2013-05-30 08:37:00,
2013-05-30 04:42:00,61.7,60.8,30.04,West,270,0.0,0.0,97,0.00,,,0.00,meteohub,2013-05-30 08:42:00,
2013-05-30 04:47:00,61.9,61.0,30.04,West,270,0.0,0.0,97,0.00,,,0.00,meteohub,2013-05-30 08:47:00,
2013-05-30 04:52:00,62.1,61.2,30.03,West,270,0.0,0.0,97,0.00,,,0.00,meteohub,2013-05-30 08:52:00,
2013-05-30 04:57:00,61.9,61.0,30.03,West,270,0.0,0.0,97,0.00,,,0.00,meteohub,2013-05-30 08:57:00,
2013-05-30 05:02:00,61.9,61.0,30.04,West,270,0.0,0.0,97,0.00,,,0.00,meteohub,2013-05-30 09:02:00,
2013-05-30 05:07:00,61.7,60.8,30.04,West,270,0.0,0.0,97,0.00,,,0.00,meteohub,2013-05-30 09:07:00,
2013-05-30 05:12:00,61.9,61.0,30.04,West,270,0.0,0.0,97,0.00,,,0.00,meteohub,2013-05-30 09:12:00,
2013-05-30 05:17:00,61.9,61.0,30.04,West,270,0.0,0.0,97,0.00,,,0.00,meteohub,2013-05-30 09:17:00,
2013-05-30 05:22:00,61.9,61.0,30.04,West,270,0.0,0.0,97,0.00,,,0.00,meteohub,2013-05-30 09:22:00,
2013-05-30 05:27:00,61.9,61.0,30.04,West,270,0.0,0.0,97,0.00,,,0.00,meteohub,2013-05-30 09:27:00,
2013-05-30 05:32:00,61.9,61.0,30.04,West,270,0.0,0.0,97,0.00,,,0.00,meteohub,2013-05-30 09:32:00,
2013-05-30 05:37:00,61.5,60.6,30.04,West,270,0.0,0.0,97,0.00,,,0.00,meteohub,2013-05-30 09:37:00,
2013-05-30 05:42:00,62.1,61.2,30.04,West,270,0.0,0.0,97,0.00,,,0.00,meteohub,2013-05-30 09:42:00,
2013-05-30 05:47:00,62.2,61.3,30.04,West,270,0.0,0.0,97,0.00,,,0.00,meteohub,2013-05-30 09:47:00,
2013-05-30 05:52:00,62.2,61.3,30.04,West,270,0.0,0.0,97,0.00,,,0.00,meteohub,2013-05-30 09:52:00,
2013-05-30 05:57:00,62.1,61.2,30.05,West,270,0.0,0.0,97,0.00,,,0.00,meteohub,2013-05-30 09:57:00,
2013-05-30 06:02:00,62.2,61.3,30.05,West,270,0.0,0.0,97,0.00,,,0.00,meteohub,2013-05-30 10:02:00,
2013-05-30 06:07:00,62.1,61.2,30.05,West,270,0.0,0.0,97,0.00,,,0.00,meteohub,2013-05-30 10:07:00,
2013-05-30 06:12:00,62.1,61.2,30.05,West,270,0.0,0.0,97,0.00,,,0.00,meteohub,2013-05-30 10:12:00,
2013-05-30 06:17:00,62.4,61.5,30.05,West,270,0.0,0.0,97,0.00,,,0.00,meteohub,2013-05-30 10:17:00,
2013-05-30 06:22:00,62.6,61.7,30.05,West,270,0.0,0.0,97,0.00,,,0.00,meteohub,2013-05-30 10:22:00,
2013-05-30 06:27:00,63.0,62.1,30.05,West,270,0.0,0.0,97,0.00,,,0.00,meteohub,2013-05-30 10:27:00,
2013-05-30 06:32:00,63.0,62.1,30.05,West,270,0.0,0.0,97,0.00,,,0.00,meteohub,2013-05-30 10:32:00,
2013-05-30 06:37:00,63.1,62.2,30.05,West,270,0.0,0.0,97,0.00,,,0.00,meteohub,2013-05-30 10:37:00,
2013-05-30 06:42:00,63.1,62.2,30.05,West,270,0.0,0.0,97,0.00,,,0.00,meteohub,2013-05-30 10:42:00,
2013-05-30 06:47:00,63.1,62.2,30.05,West,270,0.0,0.0,97,0.00,,,0.00,meteohub,2013-05-30 10:47:00,
2013-05-30 06:52:00,63.3,62.4,30.05,West,270,0.0,0.0,97,0.00,,,0.00,meteohub,2013-05-30 10:52:00,
2013-05-30 06:57:00,63.3,62.4,30.06,West,270,0.0,0.0,97,0.00,,,0.00,meteohub,2013-05-30 10:57:00,
2013-05-30 07:02:00,63.7,62.8,30.06,West,270,0.0,1.0,97,0.00,,,0.00,meteohub,2013-05-30 11:02:00,
2013-05-30 07:07:00,63.7,62.8,30.06,West,270,0.0,1.0,97,0.00,,,0.00,meteohub,2013-05-30 11:07:00,
2013-05-30 07:12:00,63.9,63.0,30.06,West,270,0.0,1.0,97,0.00,,,0.00,meteohub,2013-05-30 11:12:00,
2013-05-30 07:17:00,64.0,63.1,30.06,West,270,0.0,0.0,97,0.00,,,0.00,meteohub,2013-05-30 11:17:00,
2013-05-30 07:22:00,64.2,63.3,30.06,West,270,0.0,1.0,97,0.00,,,0.00,meteohub,2013-05-30 11:22:00,
2013-05-30 07:27:00,64.6,63.7,30.06,West,270,0.0,1.0,97,0.00,,,0.00,meteohub,2013-05-30 11:27:00,
2013-05-30 07:32:00,64.8,63.9,30.06,West,270,0.0,0.0,97,0.00,,,0.00,meteohub,2013-05-30 11:32:00,
2013-05-30 07:37:00,64.9,64.0,30.06,West,270,0.0,0.0,97,0.00,,,0.00,meteohub,2013-05-30 11:37:00,
2013-05-30 07:42:00,64.9,64.0,30.06,West,270,0.0,0.0,97,0.00,,,0.00,meteohub,2013-05-30 11:42:00,
2013-05-30 07:47:00,65.1,64.2,30.06,West,270,0.0,0.0,97,0.00,,,0.00,meteohub,2013-05-30 11:47:00,
2013-05-30 07:52:00,65.1,64.2,30.06,West,270,0.0,1.0,97,0.00,,,0.00,meteohub,2013-05-30 11:52:00,
2013-05-30 07:57:00,65.7,64.8,30.06,West,270,0.0,1.0,97,0.00,,,0.00,meteohub,2013-05-30 11:57:00,
2013-05-30 08:02:00,66.2,65.3,30.06,SE,144,0.0,1.0,97,0.00,,,0.00,meteohub,2013-05-30 12:02:00,
2013-05-30 08:07:00,66.6,65.3,30.06,SE,144,0.0,1.0,96,0.00,,,0.00,meteohub,2013-05-30 12:07:00,
2013-05-30 08:12:00,66.9,65.7,30.06,SSW,200,0.0,1.0,96,0.00,,,0.00,meteohub,2013-05-30 12:12:00,
2013-05-30 08:17:00,67.5,66.0,30.06,South,190,0.0,1.0,95,0.00,,,0.00,meteohub,2013-05-30 12:17:00,
2013-05-30 08:22:00,67.8,66.4,30.07,South,190,0.0,1.0,95,0.00,,,0.00,meteohub,2013-05-30 12:22:00,
2013-05-30 08:27:00,68.2,66.7,30.07,South,191,0.0,1.0,95,0.00,,,0.00,meteohub,2013-05-30 12:27:00,
2013-05-30 08:32:00,68.5,67.1,30.07,SW,226,1.0,1.0,95,0.00,,,0.00,meteohub,2013-05-30 12:32:00,
2013-05-30 08:37:00,68.9,67.1,30.08,West,261,2.0,2.0,94,0.00,,,0.00,meteohub,2013-05-30 12:37:00,
2013-05-30 08:42:00,69.4,67.3,30.08,WNW,288,0.0,2.0,93,0.00,,,0.00,meteohub,2013-05-30 12:42:00,
2013-05-30 08:47:00,69.6,67.3,30.08,WNW,288,0.0,3.0,92,0.00,,,0.00,meteohub,2013-05-30 12:47:00,
2013-05-30 08:52:00,70.0,67.8,30.08,WNW,288,0.0,3.0,93,0.00,,,0.00,meteohub,2013-05-30 12:52:00,
2013-05-30 08:57:00,70.3,67.6,30.08,WNW,288,0.0,3.0,91,0.00,,,0.00,meteohub,2013-05-30 12:57:00,
2013-05-30 09:02:00,71.1,68.4,30.08,WNW,288,1.0,2.0,91,0.00,,,0.00,meteohub,2013-05-30 13:02:00,
2013-05-30 09:07:00,71.6,68.5,30.08,WNW,288,0.0,2.0,90,0.00,,,0.00,meteohub,2013-05-30 13:07:00,
2013-05-30 09:12:00,72.1,68.4,30.08,WNW,296,1.0,3.0,88,0.00,,,0.00,meteohub,2013-05-30 13:12:00,
2013-05-30 09:17:00,72.7,68.9,30.08,WNW,296,1.0,3.0,88,0.00,,,0.00,meteohub,2013-05-30 13:17:00,
2013-05-30 09:22:00,73.0,68.9,30.08,WNW,296,0.0,2.0,87,0.00,,,0.00,meteohub,2013-05-30 13:22:00,
2013-05-30 09:27:00,73.0,68.2,30.08,WNW,290,0.0,3.0,85,0.00,,,0.00,meteohub,2013-05-30 13:27:00,
2013-05-30 09:32:00,73.8,68.9,30.08,WNW,290,1.0,3.0,85,0.00,,,0.00,meteohub,2013-05-30 13:32:00,
2013-05-30 09:37:00,74.1,68.5,30.08,WNW,289,2.0,3.0,83,0.00,,,0.00,meteohub,2013-05-30 13:37:00,
2013-05-30 09:42:00,74.7,68.7,30.08,WNW,289,1.0,3.0,82,0.00,,,0.00,meteohub,2013-05-30 13:42:00,
2013-05-30 09:47:00,75.0,68.7,30.08,WNW,289,2.0,3.0,81,0.00,,,0.00,meteohub,2013-05-30 13:47:00,
2013-05-30 09:52:00,75.6,69.3,30.07,WNW,289,1.0,3.0,81,0.00,,,0.00,meteohub,2013-05-30 13:52:00,
2013-05-30 09:57:00,76.3,68.9,30.07,WNW,283,1.0,3.0,78,0.00,,,0.00,meteohub,2013-05-30 13:57:00,
2013-05-30 10:02:00,76.6,69.6,30.07,WNW,288,0.0,4.0,79,0.00,,,0.00,meteohub,2013-05-30 14:02:00,
2013-05-30 10:07:00,77.4,69.3,30.07,WNW,284,1.0,4.0,76,0.00,,,0.00,meteohub,2013-05-30 14:07:00,
2013-05-30 10:12:00,78.4,69.4,30.07,WNW,284,2.0,3.0,74,0.00,,,0.00,meteohub,2013-05-30 14:12:00,
2013-05-30 10:17:00,78.8,69.4,30.07,WNW,284,0.0,3.0,73,0.00,,,0.00,meteohub,2013-05-30 14:17:00,
2013-05-30 10:22:00,78.3,69.6,30.07,NNW,336,2.0,3.0,75,0.00,,,0.00,meteohub,2013-05-30 14:22:00,
2013-05-30 10:27:00,79.2,69.8,30.07,WNW,285,0.0,3.0,73,0.00,,,0.00,meteohub,2013-05-30 14:27:00,
2013-05-30 10:32:00,80.2,70.3,30.07,West,278,1.0,4.0,72,0.00,,,0.00,meteohub,2013-05-30 14:32:00,
2013-05-30 10:37:00,80.8,68.4,30.06,WNW,287,1.0,4.0,66,0.00,,,0.00,meteohub,2013-05-30 14:37:00,
2013-05-30 10:42:00,81.0,69.4,30.06,WNW,289,1.0,5.0,68,0.00,,,0.00,meteohub,2013-05-30 14:42:00,
2013-05-30 10:47:00,80.2,69.6,30.06,WNW,287,0.0,5.0,70,0.00,,,0.00,meteohub,2013-05-30 14:47:00,
2013-05-30 10:52:00,80.8,68.7,30.06,WNW,296,2.0,5.0,67,0.00,,,0.00,meteohub,2013-05-30 14:52:00,
2013-05-30 10:57:00,81.7,69.3,30.06,WNW,293,0.0,5.0,66,0.00,,,0.00,meteohub,2013-05-30 14:57:00,
2013-05-30 11:02:00,81.9,69.4,30.06,WNW,292,2.0,5.0,66,0.00,,,0.00,meteohub,2013-05-30 15:02:00,
2013-05-30 11:07:00,83.5,70.5,30.06,WNW,292,1.0,5.0,65,0.00,,,0.00,meteohub,2013-05-30 15:07:00,
2013-05-30 11:12:00,83.1,71.1,30.06,WNW,292,0.0,4.0,67,0.00,,,0.00,meteohub,2013-05-30 15:12:00,
2013-05-30 11:17:00,82.6,68.2,30.06,WNW,286,1.0,3.0,62,0.00,,,0.00,meteohub,2013-05-30 15:17:00,
2013-05-30 11:22:00,82.6,68.2,30.06,WNW,290,4.0,5.0,62,0.00,,,0.00,meteohub,2013-05-30 15:22:00,
2013-05-30 11:27:00,82.8,68.9,30.07,WNW,284,2.0,5.0,63,0.00,,,0.00,meteohub,2013-05-30 15:27:00,
2013-05-30 11:34:00,84.0,68.2,30.07,West,281,2.0,5.0,59,0.00,,,0.00,meteohub,2013-05-30 15:34:00,
2013-05-30 11:39:00,83.5,68.5,30.06,WNW,290,2.0,5.0,61,0.00,,,0.00,meteohub,2013-05-30 15:39:00,
2013-05-30 11:44:00,84.2,68.4,30.06,WNW,288,2.0,5.0,59,0.00,,,0.00,meteohub,2013-05-30 15:44:00,
2013-05-30 11:49:00,83.8,68.0,30.06,WNW,284,2.0,5.0,59,0.00,,,0.00,meteohub,2013-05-30 15:49:00,
2013-05-30 11:54:00,83.7,67.3,30.06,NW,323,2.0,7.0,58,0.00,,,0.00,meteohub,2013-05-30 15:54:00,
2013-05-30 11:59:00,83.1,67.3,30.06,WNW,301,0.0,7.0,59,0.00,,,0.00,meteohub,2013-05-30 15:59:00,
2013-05-30 12:04:00,82.9,67.1,30.06,WNW,288,1.0,7.0,59,0.00,,,0.00,meteohub,2013-05-30 16:04:00,
2013-05-30 12:09:00,83.8,68.5,30.06,WNW,294,1.0,7.0,60,0.00,,,0.00,meteohub,2013-05-30 16:09:00,
2013-05-30 12:14:00,83.8,66.9,30.06,WNW,299,0.0,7.0,57,0.00,,,0.00,meteohub,2013-05-30 16:14:00,
2013-05-30 12:19:00,83.5,67.1,30.06,WNW,287,2.0,7.0,58,0.00,,,0.00,meteohub,2013-05-30 16:19:00,
2013-05-30 12:24:00,84.4,68.5,30.06,WNW,285,4.0,6.0,59,0.00,,,0.00,meteohub,2013-05-30 16:24:00,
2013-05-30 12:29:00,84.6,67.6,30.06,WNW,285,0.0,6.0,57,0.00,,,0.00,meteohub,2013-05-30 16:29:00,
2013-05-30 12:34:00,84.4,68.0,30.06,West,266,1.0,6.0,58,0.00,,,0.00,meteohub,2013-05-30 16:34:00,
2013-05-30 12:39:00,84.4,67.5,30.06,West,276,5.0,5.0,57,0.00,,,0.00,meteohub,2013-05-30 16:39:00,
2013-05-30 12:44:00,83.5,68.2,30.06,WNW,298,1.0,6.0,60,0.00,,,0.00,meteohub,2013-05-30 16:44:00,
2013-05-30 12:49:00,82.9,68.2,30.06,WNW,286,0.0,7.0,61,0.00,,,0.00,meteohub,2013-05-30 16:49:00,
2013-05-30 12:54:00,83.7,69.8,30.06,WNW,286,0.0,7.0,63,0.00,,,0.00,meteohub,2013-05-30 16:54:00,
2013-05-30 12:59:00,84.4,68.0,30.06,WNW,284,3.0,5.0,58,0.00,,,0.00,meteohub,2013-05-30 16:59:00,
2013-05-30 13:04:00,84.2,69.3,30.06,SSE,159,1.0,5.0,61,0.00,,,0.00,meteohub,2013-05-30 17:04:00,
2013-05-30 13:09:00,83.5,68.2,30.06,WNW,288,1.0,5.0,60,0.00,,,0.00,meteohub,2013-05-30 17:09:00,
2013-05-30 13:14:00,82.2,68.4,30.06,WNW,289,1.0,7.0,63,0.00,,,0.00,meteohub,2013-05-30 17:14:00,
2013-05-30 13:19:00,82.6,68.2,30.05,WNW,288,3.0,7.0,62,0.00,,,0.00,meteohub,2013-05-30 17:19:00,
2013-05-30 13:25:00,84.6,68.2,30.05,WNW,286,2.0,7.0,58,0.00,,,0.00,meteohub,2013-05-30 17:25:00,
2013-05-30 13:30:00,84.7,68.4,30.05,WNW,295,1.0,7.0,58,0.00,,,0.00,meteohub,2013-05-30 17:30:00,
2013-05-30 13:35:00,83.5,68.2,30.05,West,279,4.0,7.0,60,0.00,,,0.00,meteohub,2013-05-30 17:35:00,
2013-05-30 13:40:00,84.4,68.0,30.05,WNW,290,2.0,7.0,58,0.00,,,0.00,meteohub,2013-05-30 17:40:00,
2013-05-30 13:45:00,84.7,68.4,30.04,WNW,286,3.0,8.0,58,0.00,,,0.00,meteohub,2013-05-30 17:45:00,
2013-05-30 13:50:00,84.4,68.0,30.04,WNW,294,0.0,8.0,58,0.00,,,0.00,meteohub,2013-05-30 17:50:00,
2013-05-30 13:55:00,85.1,69.1,30.04,WNW,294,0.0,6.0,59,0.00,,,0.00,meteohub,2013-05-30 17:55:00,
2013-05-30 14:00:00,84.6,69.6,30.04,WNW,287,3.0,6.0,61,0.00,,,0.00,meteohub,2013-05-30 18:00:00,
2013-05-30 14:05:00,84.0,67.6,30.04,NW,304,1.0,4.0,58,0.00,,,0.00,meteohub,2013-05-30 18:05:00,
2013-05-30 14:10:00,83.8,67.5,30.04,WNW,290,1.0,7.0,58,0.00,,,0.00,meteohub,2013-05-30 18:10:00,
2013-05-30 14:15:00,83.7,68.7,30.04,WNW,286,0.0,7.0,61,0.00,,,0.00,meteohub,2013-05-30 18:15:00,
2013-05-30 14:20:00,84.6,68.2,30.04,WSW,246,3.0,6.0,58,0.00,,,0.00,meteohub,2013-05-30 18:20:00,
2013-05-30 14:25:00,84.6,68.7,30.04,WNW,296,1.0,6.0,59,0.00,,,0.00,meteohub,2013-05-30 18:25:00,
2013-05-30 14:30:00,84.4,69.4,30.03,WNW,295,0.0,6.0,61,0.00,,,0.00,meteohub,2013-05-30 18:30:00,
2013-05-30 14:35:00,85.5,69.4,30.03,WNW,295,0.0,6.0,59,0.00,,,0.00,meteohub,2013-05-30 18:35:00,
2013-05-30 14:40:00,86.4,68.7,30.03,West,279,0.0,5.0,56,0.00,,,0.00,meteohub,2013-05-30 18:40:00,
2013-05-30 14:45:00,87.6,71.1,30.03,NNW,328,0.0,5.0,58,0.00,,,0.00,meteohub,2013-05-30 18:45:00,
2013-05-30 14:50:00,87.4,68.7,30.03,WNW,291,1.0,5.0,54,0.00,,,0.00,meteohub,2013-05-30 18:50:00,
2013-05-30 14:55:00,87.4,68.7,30.03,West,277,0.0,5.0,54,0.00,,,0.00,meteohub,2013-05-30 18:55:00,
2013-05-30 15:00:00,87.1,68.9,30.03,NW,304,1.0,6.0,55,0.00,,,0.00,meteohub,2013-05-30 19:00:00,
2013-05-30 15:05:00,86.5,68.4,30.03,West,278,0.0,6.0,55,0.00,,,0.00,meteohub,2013-05-30 19:05:00,
2013-05-30 15:10:00,87.4,69.3,30.03,WNW,301,3.0,9.0,55,0.00,,,0.00,meteohub,2013-05-30 19:10:00,
2013-05-30 15:15:00,86.5,68.0,30.03,WNW,303,1.0,9.0,54,0.00,,,0.00,meteohub,2013-05-30 19:15:00,
2013-05-30 15:20:00,86.0,67.5,30.02,WNW,287,0.0,5.0,54,0.00,,,0.00,meteohub,2013-05-30 19:20:00,
2013-05-30 15:25:00,85.5,68.0,30.03,WNW,287,1.0,5.0,56,0.00,,,0.00,meteohub,2013-05-30 19:25:00,
2013-05-30 15:30:00,86.2,69.1,30.02,WNW,283,1.0,5.0,57,0.00,,,0.00,meteohub,2013-05-30 19:30:00,
2013-05-30 15:35:00,86.0,68.9,30.02,WNW,286,2.0,5.0,57,0.00,,,0.00,meteohub,2013-05-30 19:35:00,
2013-05-30 15:40:00,85.1,68.7,30.02,WNW,302,1.0,5.0,58,0.00,,,0.00,meteohub,2013-05-30 19:40:00,
2013-05-30 15:45:00,84.4,68.0,30.02,WNW,288,0.0,5.0,58,0.00,,,0.00,meteohub,2013-05-30 19:45:00,
2013-05-30 15:50:00,84.6,68.7,30.02,WNW,294,1.0,5.0,59,0.00,,,0.00,meteohub,2013-05-30 19:50:00,
2013-05-30 15:55:00,85.5,69.4,30.01,WNW,285,1.0,5.0,59,0.00,,,0.00,meteohub,2013-05-30 19:55:00,
2013-05-30 16:00:00,85.8,67.8,30.02,West,281,1.0,6.0,55,0.00,,,0.00,meteohub,2013-05-30 20:00:00,
2013-05-30 16:05:00,85.8,68.4,30.01,WNW,296,0.0,6.0,56,0.00,,,0.00,meteohub,2013-05-30 20:05:00,
2013-05-30 16:11:00,86.5,68.9,30.01,WNW,292,1.0,6.0,56,0.00,,,0.00,meteohub,2013-05-30 20:11:00,
2013-05-30 16:15:00,87.1,68.4,30.01,WNW,286,0.0,6.0,54,0.00,,,0.00,meteohub,2013-05-30 20:15:00,
2013-05-30 16:20:00,86.5,68.4,30.01,WNW,286,0.0,6.0,55,0.00,,,0.00,meteohub,2013-05-30 20:20:00,
2013-05-30 16:26:00,86.2,68.7,30.01,WNW,285,2.0,6.0,56,0.00,,,0.00,meteohub,2013-05-30 20:26:00,
2013-05-30 16:31:00,86.7,68.5,30.01,WNW,282,1.0,4.0,55,0.00,,,0.00,meteohub,2013-05-30 20:31:00,
2013-05-30 16:36:00,86.4,67.3,30.01,West,280,3.0,4.0,53,0.00,,,0.00,meteohub,2013-05-30 20:36:00,
2013-05-30 16:41:00,86.4,67.3,30.01,WNW,284,3.0,6.0,53,0.00,,,0.00,meteohub,2013-05-30 20:41:00,
2013-05-30 16:46:00,86.0,67.5,30.01,WNW,282,3.0,6.0,54,0.00,,,0.00,meteohub,2013-05-30 20:46:00,
2013-05-30 16:51:00,86.0,67.5,30.01,WNW,287,1.0,6.0,54,0.00,,,0.00,meteohub,2013-05-30 20:51:00,
2013-05-30 16:56:00,85.8,67.3,30.01,WNW,291,2.0,7.0,54,0.00,,,0.00,meteohub,2013-05-30 20:56:00,
2013-05-30 17:01:00,85.5,67.5,30.01,WNW,291,4.0,7.0,55,0.00,,,0.00,meteohub,2013-05-30 21:01:00,
2013-05-30 17:06:00,85.1,66.6,30.00,WNW,283,2.0,7.0,54,0.00,,,0.00,meteohub,2013-05-30 21:06:00,
2013-05-30 17:11:00,85.3,67.3,30.00,WNW,294,1.0,7.0,55,0.00,,,0.00,meteohub,2013-05-30 21:11:00,
2013-05-30 17:16:00,84.7,67.3,30.00,WNW,294,0.0,7.0,56,0.00,,,0.00,meteohub,2013-05-30 21:16:00,
2013-05-30 17:21:00,84.7,66.7,30.00,WNW,294,0.0,4.0,55,0.00,,,0.00,meteohub,2013-05-30 21:21:00,
2013-05-30 17:26:00,84.9,67.5,30.00,WNW,294,2.0,4.0,56,0.00,,,0.00,meteohub,2013-05-30 21:26:00,
2013-05-30 17:31:00,84.6,66.6,30.00,WNW,294,2.0,3.0,55,0.00,,,0.00,meteohub,2013-05-30 21:31:00,
2013-05-30 17:36:00,84.7,67.3,30.00,WNW,294,0.0,6.0,56,0.00,,,0.00,meteohub,2013-05-30 21:36:00,
2013-05-30 17:41:00,84.7,66.7,30.00,WNW,294,1.0,6.0,55,0.00,,,0.00,meteohub,2013-05-30 21:41:00,
2013-05-30 17:46:00,84.6,66.0,30.00,WNW,283,0.0,6.0,54,0.00,,,0.00,meteohub,2013-05-30 21:46:00,
2013-05-30 17:51:00,84.4,66.4,30.00,WNW,282,3.0,5.0,55,0.00,,,0.00,meteohub,2013-05-30 21:51:00,
2013-05-30 17:56:00,84.6,66.6,30.00,WNW,292,2.0,5.0,55,0.00,,,0.00,meteohub,2013-05-30 21:56:00,
2013-05-30 18:01:00,84.7,66.7,30.00,WNW,292,2.0,6.0,55,0.00,,,0.00,meteohub,2013-05-30 22:01:00,
2013-05-30 18:06:00,84.6,66.6,30.00,NW,310,2.0,6.0,55,0.00,,,0.00,meteohub,2013-05-30 22:06:00,
2013-05-30 18:11:00,84.6,66.0,30.00,WNW,286,1.0,6.0,54,0.00,,,0.00,meteohub,2013-05-30 22:11:00,
2013-05-30 18:16:00,84.7,66.7,30.00,WNW,285,1.0,5.0,55,0.00,,,0.00,meteohub,2013-05-30 22:16:00,
2013-05-30 18:21:00,84.4,66.9,30.00,WNW,285,1.0,5.0,56,0.00,,,0.00,meteohub,2013-05-30 22:21:00,
2013-05-30 18:26:00,84.0,66.6,30.00,NW,306,2.0,4.0,56,0.00,,,0.00,meteohub,2013-05-30 22:26:00,
2013-05-30 18:31:00,84.0,66.2,30.01,WNW,283,2.0,6.0,55,0.00,,,0.00,meteohub,2013-05-30 22:31:00,
2013-05-30 18:36:00,84.0,66.6,30.01,West,280,0.0,6.0,56,0.00,,,0.00,meteohub,2013-05-30 22:36:00,
2013-05-30 18:41:00,83.8,66.9,30.00,West,280,1.0,4.0,57,0.00,,,0.00,meteohub,2013-05-30 22:41:00,
2013-05-30 18:46:00,83.7,66.4,30.01,WNW,286,0.0,4.0,56,0.00,,,0.00,meteohub,2013-05-30 22:46:00,
2013-05-30 18:51:00,83.5,66.6,30.00,WNW,286,1.0,4.0,57,0.00,,,0.00,meteohub,2013-05-30 22:51:00,
2013-05-30 18:56:00,82.8,67.5,30.01,WNW,286,0.0,4.0,60,0.00,,,0.00,meteohub,2013-05-30 22:56:00,
2013-05-30 19:01:00,82.9,67.1,30.01,WSW,258,1.0,5.0,59,0.00,,,0.00,meteohub,2013-05-30 23:01:00,
2013-05-30 19:06:00,82.8,66.9,30.01,West,273,0.0,5.0,59,0.00,,,0.00,meteohub,2013-05-30 23:06:00,
2013-05-30 19:11:00,82.6,66.4,30.01,WNW,282,1.0,5.0,58,0.00,,,0.00,meteohub,2013-05-30 23:11:00,
2013-05-30 19:16:00,82.6,66.7,30.01,WNW,282,0.0,4.0,59,0.00,,,0.00,meteohub,2013-05-30 23:16:00,
2013-05-30 19:21:00,82.0,67.6,30.01,WNW,282,0.0,4.0,62,0.00,,,0.00,meteohub,2013-05-30 23:21:00,
2013-05-30 19:26:00,80.8,68.0,30.01,WNW,282,0.0,3.0,65,0.00,,,0.00,meteohub,2013-05-30 23:26:00,
2013-05-30 19:31:00,80.2,67.8,30.01,WNW,282,0.0,1.0,66,0.00,,,0.00,meteohub,2013-05-30 23:31:00,
2013-05-30 19:36:00,80.1,68.2,30.01,WNW,282,0.0,0.0,67,0.00,,,0.00,meteohub,2013-05-30 23:36:00,
2013-05-30 19:41:00,79.5,68.5,30.01,WNW,282,0.0,0.0,69,0.00,,,0.00,meteohub,2013-05-30 23:41:00,
2013-05-30 19:46:00,79.0,68.4,30.01,WNW,282,0.0,1.0,70,0.00,,,0.00,meteohub,2013-05-30 23:46:00,
2013-05-30 19:51:00,78.6,67.6,30.01,WNW,282,0.0,1.0,69,0.00,,,0.00,meteohub,2013-05-30 23:51:00,
2013-05-30 19:56:00,78.4,67.8,30.01,WNW,282,0.0,1.0,70,0.00,,,0.00,meteohub,2013-05-30 23:56:00,
2013-05-30 20:01:00,78.3,68.0,30.01,WNW,282,0.0,0.0,71,0.00,,,0.00,meteohub,2013-05-31 00:01:00,
2013-05-30 20:06:00,77.7,67.6,30.01,WNW,282,0.0,0.0,71,0.00,,,0.00,meteohub,2013-05-31 00:06:00,
2013-05-30 20:11:00,77.0,67.6,30.01,WNW,282,0.0,0.0,73,0.00,,,0.00,meteohub,2013-05-31 00:11:00,
2013-05-30 20:16:00,76.5,68.0,30.01,WNW,282,0.0,0.0,75,0.00,,,0.00,meteohub,2013-05-31 00:16:00,
2013-05-30 20:21:00,76.3,68.2,30.01,WNW,282,0.0,0.0,76,0.00,,,0.00,meteohub,2013-05-31 00:21:00,
2013-05-30 20:26:00,75.4,68.0,30.02,WNW,282,0.0,0.0,78,0.00,,,0.00,meteohub,2013-05-31 00:26:00,
2013-05-30 20:31:00,74.5,67.8,30.02,WNW,282,0.0,0.0,80,0.00,,,0.00,meteohub,2013-05-31 00:31:00,
2013-05-30 20:36:00,74.1,67.6,30.02,WNW,282,0.0,0.0,80,0.00,,,0.00,meteohub,2013-05-31 00:36:00,
2013-05-30 20:41:00,73.8,67.6,30.02,WNW,282,0.0,0.0,81,0.00,,,0.00,meteohub,2013-05-31 00:41:00,
2013-05-30 20:46:00,73.4,67.6,30.02,WNW,282,0.0,0.0,82,0.00,,,0.00,meteohub,2013-05-31 00:46:00,
2013-05-30 20:51:00,73.2,67.8,30.02,WNW,282,0.0,0.0,83,0.00,,,0.00,meteohub,2013-05-31 00:51:00,
2013-05-30 20:56:00,73.0,67.6,30.03,WNW,282,0.0,0.0,83,0.00,,,0.00,meteohub,2013-05-31 00:56:00,
2013-05-30 21:01:00,72.7,67.6,30.03,WNW,282,0.0,0.0,84,0.00,,,0.00,meteohub,2013-05-31 01:01:00,
2013-05-30 21:06:00,72.0,67.3,30.03,WNW,282,0.0,0.0,85,0.00,,,0.00,meteohub,2013-05-31 01:06:00,
2013-05-30 21:11:00,71.8,67.1,30.03,WNW,282,0.0,0.0,85,0.00,,,0.00,meteohub,2013-05-31 01:11:00,
2013-05-30 21:16:00,71.6,67.1,30.03,WNW,282,0.0,0.0,86,0.00,,,0.00,meteohub,2013-05-31 01:16:00,
2013-05-30 21:21:00,71.6,67.1,30.03,WNW,282,0.0,0.0,86,0.00,,,0.00,meteohub,2013-05-31 01:21:00,
2013-05-30 21:26:00,71.4,67.1,30.03,WNW,282,0.0,0.0,86,0.00,,,0.00,meteohub,2013-05-31 01:26:00,
2013-05-30 21:31:00,71.1,66.9,30.03,WNW,282,0.0,0.0,87,0.00,,,0.00,meteohub,2013-05-31 01:31:00,
2013-05-30 21:36:00,70.9,66.7,30.03,WNW,282,0.0,0.0,87,0.00,,,0.00,meteohub,2013-05-31 01:36:00,
2013-05-30 21:41:00,70.5,66.7,30.03,WNW,282,0.0,0.0,88,0.00,,,0.00,meteohub,2013-05-31 01:41:00,
2013-05-30 21:46:00,70.3,66.6,30.03,WNW,282,0.0,0.0,88,0.00,,,0.00,meteohub,2013-05-31 01:46:00,
2013-05-30 21:51:00,70.2,66.4,30.03,WNW,282,0.0,0.0,88,0.00,,,0.00,meteohub,2013-05-31 01:51:00,
2013-05-30 21:56:00,70.0,66.6,30.03,WNW,282,0.0,0.0,89,0.00,,,0.00,meteohub,2013-05-31 01:56:00,
2013-05-30 22:01:00,69.8,66.7,30.03,WNW,282,0.0,0.0,90,0.00,,,0.00,meteohub,2013-05-31 02:01:00,
2013-05-30 22:07:00,69.6,66.6,30.03,WNW,282,0.0,0.0,90,0.00,,,0.00,meteohub,2013-05-31 02:07:00,
2013-05-30 22:11:00,69.4,66.4,30.03,WNW,282,0.0,0.0,90,0.00,,,0.00,meteohub,2013-05-31 02:11:00,
2013-05-30 22:16:00,69.3,66.6,30.03,WNW,282,0.0,0.0,91,0.00,,,0.00,meteohub,2013-05-31 02:16:00,
2013-05-30 22:21:00,69.3,66.6,30.03,WNW,282,0.0,0.0,91,0.00,,,0.00,meteohub,2013-05-31 02:21:00,
2013-05-30 22:26:00,69.1,66.4,30.03,WNW,282,0.0,0.0,91,0.00,,,0.00,meteohub,2013-05-31 02:26:00,
2013-05-30 22:31:00,68.7,66.0,30.04,WNW,282,0.0,0.0,91,0.00,,,0.00,meteohub,2013-05-31 02:31:00,
2013-05-30 22:36:00,68.5,66.2,30.04,WNW,282,0.0,0.0,92,0.00,,,0.00,meteohub,2013-05-31 02:36:00,
2013-05-30 22:41:00,68.4,66.0,30.04,WNW,282,0.0,0.0,92,0.00,,,0.00,meteohub,2013-05-31 02:41:00,
2013-05-30 22:46:00,68.2,65.5,30.04,WNW,282,0.0,0.0,91,0.00,,,0.00,meteohub,2013-05-31 02:46:00,
2013-05-30 22:51:00,68.2,65.5,30.04,WNW,282,0.0,0.0,91,0.00,,,0.00,meteohub,2013-05-31 02:51:00,
2013-05-30 22:57:00,68.0,65.7,30.04,WNW,282,0.0,0.0,92,0.00,,,0.00,meteohub,2013-05-31 02:57:00,
2013-05-30 23:01:00,67.6,65.3,30.04,WNW,282,0.0,0.0,92,0.00,,,0.00,meteohub,2013-05-31 03:01:00,
2013-05-30 23:06:00,67.5,65.1,30.04,WNW,282,0.0,0.0,92,0.00,,,0.00,meteohub,2013-05-31 03:06:00,
2013-05-30 23:11:00,67.3,65.1,30.04,WNW,282,0.0,0.0,93,0.00,,,0.00,meteohub,2013-05-31 03:11:00,
2013-05-30 23:16:00,67.3,65.1,30.04,WNW,282,0.0,0.0,93,0.00,,,0.00,meteohub,2013-05-31 03:16:00,
2013-05-30 23:21:00,67.1,64.9,30.04,WNW,282,0.0,0.0,93,0.00,,,0.00,meteohub,2013-05-31 03:21:00,
2013-05-30 23:26:00,67.1,64.9,30.04,WNW,282,0.0,0.0,93,0.00,,,0.00,meteohub,2013-05-31 03:26:00,
2013-05-30 23:31:00,67.1,64.9,30.04,WNW,282,0.0,0.0,93,0.00,,,0.00,meteohub,2013-05-31 03:31:00,
2013-05-30 23:36:00,67.1,64.9,30.04,WNW,282,0.0,0.0,93,0.00,,,0.00,meteohub,2013-05-31 03:36:00,
2013-05-30 23:41:00,66.9,64.8,30.04,WNW,282,0.0,0.0,93,0.00,,,0.00,meteohub,2013-05-31 03:41:00,
2013-05-30 23:46:00,66.9,64.8,30.04,WNW,282,0.0,0.0,93,0.00,,,0.00,meteohub,2013-05-31 03:46:00,
2013-05-30 23:52:00,66.7,64.6,30.04,WNW,282,0.0,0.0,93,0.00,,,0.00,meteohub,2013-05-31 03:52:00,
2013-05-30 23:57:00,66.6,64.4,30.04,WNW,282,0.0,0.0,93,0.00,,,0.00,meteohub,2013-05-31 03:57:00,